Content
SEND FEEDBACK

Daily
Averages
Monthly
Summary
United States of America

COMFREY, MINNESOTA


Home > North America > United States > Minnesota
Elevation: 1115 feet     Latitude: 44 07N     Longitude: 094 54W

WEATHER
 
SELECT A DAY
Number of Records: 449,792;   Date Range: 10/21/96 - 11/25/14
 
SHARE

PRINT THIS DATA

[ ← Previous Day ]
WEATHER ALMANAC - JANUARY 31, 2013
[ Next Day → ]
[ °C ]   °F
Weather ElementAverageHighLow
Temperature-4.6 °F-0.4 °F (12:32 am)-9.4 °F (11:12 pm)
Dewpoint-10.8 °F-5.8 °F (12:32 am)-14.8 °F (7:52 pm)
Humidity74.8 %84 % (5:33 am)71 % (9:17 am)
Barometer30.06 in30.27 in (9:52 pm)29.81 in (12:32 am)
Wind Speed19.7 mph27.6 mph (10:53 am)
Wind Gust36.8 mph (10:32 am)
Weather ElementAverage
Visibility9.6 mi
Wind DirectionWNW (297.2 °)

Weather ElementTotal
Precipitation---
Heating Degree Days69.9 (Base 65)
Averaged from 71 records on January 31, 2013
WEATHER CONDITIONS BREAKOUT
WIND DIRECTION BREAKOUT
WEATHER BY HOUR - JANUARY 31, 2013
[ °C ]   °F
Local TimeTemperatureDewpointHumidityBarometerVisibilityWind DirectionWind SpeedGust SpeedPrecipitationEventsConditions
12:32 AM-0.4 °F-5.8 °F78 %29.81 in10.0 miWNW (290°)20.7 mph27.6 mphOvercast
12:52 AM-0.4 °F-5.8 °F78 %29.82 in10.0 miWNW (290°)19.6 mphOvercast
1:13 AM-0.4 °F-5.8 °F78 %29.83 in10.0 miWNW (290°)20.7 mphOvercast
1:32 AM-0.4 °F-5.8 °F78 %29.83 in10.0 miWNW (290°)19.6 mph24.2 mphOvercast
1:52 AM-2.2 °F-7.6 °F78 %29.83 in10.0 miWNW (290°)19.6 mph24.2 mphOvercast
2:13 AM-2.2 °F-7.6 °F78 %29.83 in10.0 miWNW (300°)20.7 mph26.5 mphOvercast
2:32 AM-2.2 °F-7.6 °F78 %29.85 in10.0 miWNW (300°)17.3 mph24.2 mphOvercast
2:52 AM-2.2 °F-7.6 °F78 %29.85 in10.0 miWNW (290°)13.8 mph19.6 mphOvercast
3:12 AM-2.2 °F-7.6 °F78 %29.85 in10.0 miWNW (290°)16.1 mph20.7 mphOvercast
3:32 AM-2.2 °F-7.6 °F78 %29.86 in10.0 miWNW (290°)17.3 mph23.0 mphOvercast
3:53 AM-2.2 °F-7.6 °F78 %29.86 in10.0 miWNW (300°)15.0 mphOvercast
4:12 AM-2.2 °F-7.6 °F78 %29.87 in10.0 miWNW (300°)17.3 mphOvercast
4:33 AM-2.2 °F-7.6 °F78 %29.88 in7.0 miWNW (290°)18.4 mph23.0 mphOvercast
4:52 AM-2.2 °F-7.6 °F78 %29.89 in7.0 miNW (310°)17.3 mph21.9 mphOvercast
5:12 AM-4.0 °F-9.4 °F78 %29.89 in10.0 miWNW (300°)19.6 mph25.3 mphMostly Cloudy
5:33 AM-5.8 °F-9.4 °F84 %29.90 in10.0 miWNW (300°)19.6 mph28.8 mphClear
5:52 AM-5.8 °F-11.2 °F77 %29.92 in10.0 miWNW (300°)13.8 mph26.5 mphClear
6:12 AM-5.8 °F-11.2 °F77 %29.92 in10.0 miWNW (300°)18.4 mph23.0 mphClear
6:33 AM-5.8 °F-11.2 °F77 %29.92 in10.0 miNW (310°)19.6 mph23.0 mphClear
6:52 AM-5.8 °F-11.2 °F77 %29.93 in10.0 miWNW (300°)18.4 mph25.3 mphClear
7:12 AM-5.8 °F-11.2 °F77 %29.94 in10.0 miWNW (300°)18.4 mph27.6 mphClear
7:33 AM-7.6 °F-11.2 °F84 %29.95 in10.0 miWNW (300°)18.4 mph26.5 mphClear
7:52 AM-7.6 °F-11.2 °F84 %29.97 in10.0 miWNW (300°)19.6 mph26.5 mphClear
8:12 AM-7.6 °F-13.0 °F77 %29.99 in10.0 miWNW (300°)18.4 mph28.8 mphClear
8:32 AM-7.6 °F-13.0 °F77 %29.99 in10.0 miWNW (300°)18.4 mphClear
8:53 AM-7.6 °F-13.0 °F77 %29.99 in10.0 miWNW (300°)21.9 mph27.6 mphClear
9:17 AM-5.8 °F-13.0 °F71 %30.00 in10.0 miWNW (300°)20.7 mph26.5 mphClear
9:32 AM-5.8 °F-13.0 °F71 %30.01 in10.0 miNW (310°)24.2 mph32.2 mphClear
9:53 AM-5.8 °F-13.0 °F71 %30.02 in10.0 miWNW (300°)24.2 mph28.8 mphClear
10:12 AM-5.8 °F-13.0 °F71 %30.04 in10.0 miWNW (300°)21.9 mph31.1 mphClear
10:32 AM-5.8 °F-13.0 °F71 %30.04 in10.0 miNW (310°)25.3 mph36.8 mphClear
10:53 AM-5.8 °F-13.0 °F71 %30.05 in10.0 miWNW (300°)27.6 mph32.2 mphClear
11:12 AM-5.8 °F-13.0 °F71 %30.05 in10.0 miNW (310°)27.6 mph32.2 mphClear
11:33 AM-5.8 °F-11.2 °F77 %30.06 in3.0 miWNW (300°)26.5 mph36.8 mphHaze
11:53 AM-5.8 °F-11.2 °F77 %30.08 in4.0 miWNW (300°)21.9 mph34.5 mphHaze
12:12 PM-5.8 °F-11.2 °F77 %30.07 in4.0 miWNW (300°)27.6 mphHaze
12:33 PM-5.8 °F-11.2 °F77 %30.09 in7.0 miWNW (300°)23.0 mph33.4 mphScattered Clouds
12:53 PM-4.0 °F-9.4 °F78 %30.09 in10.0 miWNW (300°)23.0 mph29.9 mphMostly Cloudy
1:12 PM-2.2 °F-9.4 °F71 %30.10 in7.0 miWNW (300°)20.7 mph32.2 mphScattered Clouds
1:33 PM-2.2 °F-9.4 °F71 %30.10 in10.0 miWNW (300°)24.2 mph31.1 mphClear
1:52 PM-2.2 °F-9.4 °F71 %30.11 in10.0 miWNW (290°)27.6 mph33.4 mphClear
2:12 PM-2.2 °F-9.4 °F71 %30.11 in10.0 miWNW (300°)21.9 mph32.2 mphClear
2:32 PM-0.4 °F-7.6 °F72 %30.12 in10.0 miWNW (300°)24.2 mph32.2 mphClear
2:53 PM-0.4 °F-7.6 °F72 %30.14 in10.0 miWNW (300°)23.0 mph28.8 mphClear
3:13 PM-0.4 °F-7.6 °F72 %30.14 in10.0 miNW (310°)23.0 mph28.8 mphClear
3:32 PM-0.4 °F-7.6 °F72 %30.15 in10.0 miNW (310°)24.2 mph32.2 mphClear
3:53 PM-2.2 °F-9.4 °F71 %30.16 in10.0 miWNW (300°)24.2 mph28.8 mphClear
4:12 PM-2.2 °F-9.4 °F71 %30.17 in10.0 miWNW (300°)19.6 mph27.6 mphClear
4:32 PM-2.2 °F-9.4 °F71 %30.18 in10.0 miWNW (300°)19.6 mph26.5 mphClear
4:52 PM-2.2 °F-9.4 °F71 %30.18 in10.0 miWNW (300°)18.4 mph26.5 mphClear
5:12 PM-2.2 °F-9.4 °F71 %30.19 in10.0 miWNW (290°)21.9 mph29.9 mphClear
5:33 PM-4.0 °F-9.4 °F78 %30.19 in10.0 miWNW (290°)21.9 mph25.3 mphClear
5:52 PM-4.0 °F-11.2 °F71 %30.21 in10.0 miWNW (290°)17.3 mph23.0 mphClear
6:12 PM-5.8 °F-11.2 °F77 %30.21 in10.0 miNW (310°)15.0 mph25.3 mphClear
6:33 PM-5.8 °F-11.2 °F77 %30.21 in10.0 miWNW (290°)20.7 mph24.2 mphClear
6:52 PM-5.8 °F-11.2 °F77 %30.23 in10.0 miWNW (290°)15.0 mphClear
7:12 PM-5.8 °F-11.2 °F77 %30.23 in10.0 miWNW (300°)16.1 mph20.7 mphClear
7:33 PM-5.8 °F-13.0 °F71 %30.23 in10.0 miWest (280°)19.6 mphClear
7:52 PM-7.6 °F-14.8 °F71 %30.24 in10.0 miWNW (290°)23.0 mph27.6 mphClear
8:12 PM-7.6 °F-14.8 °F71 %30.24 in10.0 miWNW (290°)19.6 mph25.3 mphClear
8:33 PM-7.6 °F-14.8 °F71 %30.25 in10.0 miWNW (290°)21.9 mph27.6 mphClear
8:52 PM-7.6 °F-14.8 °F71 %30.26 in10.0 miWNW (290°)13.8 mph27.6 mphClear
9:12 PM-7.6 °F-14.8 °F71 %30.26 in10.0 miWNW (290°)17.3 mphClear
9:33 PM-7.6 °F-14.8 °F71 %30.26 in10.0 miWNW (300°)17.3 mph23.0 mphClear
9:52 PM-7.6 °F-14.8 °F71 %30.27 in10.0 miWNW (290°)15.0 mphClear
10:12 PM-7.6 °F-14.8 °F71 %30.27 in10.0 miWNW (290°)15.0 mph21.9 mphClear
10:33 PM-7.6 °F-14.8 °F71 %30.27 in10.0 miWNW (300°)12.7 mphClear
10:52 PM-7.6 °F-14.8 °F71 %30.27 in10.0 miWNW (290°)11.5 mphClear
11:12 PM-9.4 °F-14.8 °F77 %30.27 in10.0 miWNW (290°)12.7 mphClear
11:33 PM-9.4 °F-14.8 °F77 %30.27 in10.0 miWNW (290°)15.0 mph18.4 mphClear
11:52 PM-7.6 °F-14.8 °F71 %30.27 in10.0 miWNW (290°)11.5 mphClear
Hourly data recorded from KMWM, located miles away from Comfrey, Minnesota







STORIES FROM OUR PARTNERS